When you browse on this site, cookies collect data to enhance your experience and personalize the content and advertising you see.
Visit our Privacy Policy to learn more. By continuing to use the site, you agree to this use of cookies and data.
  • In Slovakia
  • List of Countries
  • For 7 days
  • Water Temperature
  • Weather Map
  • Weather Widgets
  • user-avatar
    Login

    Hourly Weather Barisal

    Today, 22 September, Sunday

    Time Temperature Precipitation Wind Pressure Humidity
    00:00 +28°C° 0 mm 0 mps 755 mmHg 76%
    01:00 +28°C° 0 mm 0 mps 755 mmHg 75%
    02:00 +28°C° 0 mm 0 mps 755 mmHg 75%
    03:00 +28°C° 0 mm 0 mps 755 mmHg 75%
    04:00 +29°C° 0 mm 1 mps 755 mmHg 79%
    05:00 +27°C° 0 mm 0 mps 755 mmHg 80%
    06:00 +29°C° 0 mm 1 mps 756 mmHg 76%
    07:00 +31°C° 0 mm 1 mps 756 mmHg 72%
    08:00 +32°C° 0 mm 2 mps 756 mmHg 67%
    09:00 +34°C° 0 mm 2 mps 756 mmHg 63%
    10:00 +35°C° 0 mm 2 mps 756 mmHg 59%
    11:00 +36°C° 0 mm 2 mps 756 mmHg 55%
    12:00 +37°C° 0 mm 2 mps 756 mmHg 50%
    13:00 +37°C° 0 mm 3 mps 755 mmHg 50%
    14:00 +37°C° 0 mm 3 mps 755 mmHg 50%
    15:00 +37°C° 0 mm 3 mps 754 mmHg 50%
    16:00 +36°C° 0 mm 3 mps 754 mmHg 55%
    17:00 +34°C° 0 mm 3 mps 754 mmHg 61%
    18:00 +33°C° 0 mm 3 mps 754 mmHg 67%
    19:00 +32°C° 0 mm 2 mps 755 mmHg 69%
    20:00 +31°C° 0 mm 2 mps 756 mmHg 70%
    21:00 +31°C° 0 mm 2 mps 756 mmHg 72%
    22:00 +30°C° 0 mm 2 mps 756 mmHg 74%
    23:00 +30°C° 0 mm 2 mps 756 mmHg 75%

    Tomorrow, 23 September, Monday

    Time Temperature Precipitation Wind Pressure Humidity
    00:00 +30°C° 0 mm 2 mps 756 mmHg 77%
    01:00 +30°C° 0.3 mm 2 mps 756 mmHg 78%
    02:00 +30°C° 0.3 mm 2 mps 756 mmHg 80%
    03:00 +30°C° 0.3 mm 1 mps 755 mmHg 82%
    04:00 +29°C° 0.8 mm 1 mps 756 mmHg 82%
    05:00 +29°C° 0.8 mm 1 mps 756 mmHg 82%
    06:00 +29°C° 0.8 mm 1 mps 756 mmHg 82%
    07:00 +31°C° 0.7 mm 2 mps 757 mmHg 76%
    08:00 +33°C° 0.7 mm 3 mps 757 mmHg 70%
    09:00 +34°C° 0.7 mm 4 mps 757 mmHg 64%
    10:00 +34°C° 0.3 mm 4 mps 757 mmHg 62%
    11:00 +35°C° 0.3 mm 5 mps 757 mmHg 59%
    12:00 +35°C° 0.3 mm 5 mps 756 mmHg 57%
    13:00 +35°C° 0.6 mm 5 mps 756 mmHg 59%
    14:00 +34°C° 0.6 mm 5 mps 755 mmHg 61%
    15:00 +34°C° 0.6 mm 6 mps 755 mmHg 64%
    16:00 +33°C° 0.2 mm 5 mps 755 mmHg 68%
    17:00 +32°C° 0.2 mm 4 mps 755 mmHg 72%
    18:00 +30°C° 0.2 mm 3 mps 755 mmHg 77%
    19:00 +30°C° 0 mm 3 mps 756 mmHg 78%
    20:00 +30°C° 0 mm 4 mps 756 mmHg 78%
    21:00 +30°C° 0 mm 4 mps 757 mmHg 79%
    22:00 +30°C° 0.2 mm 3 mps 757 mmHg 80%
    23:00 +30°C° 0.2 mm 3 mps 757 mmHg 81%

    Day after tomorrow, 24 September, Tuesday

    Time Temperature Precipitation Wind Pressure Humidity
    00:00 +30°C° 0.2 mm 3 mps 757 mmHg 82%
    01:00 +29°C° 0.7 mm 3 mps 756 mmHg 82%
    02:00 +29°C° 0.7 mm 3 mps 756 mmHg 83%
    03:00 +29°C° 0.7 mm 3 mps 756 mmHg 83%
    04:00 +29°C° 0.2 mm 3 mps 756 mmHg 83%
    05:00 +29°C° 0.2 mm 3 mps 756 mmHg 83%
    06:00 +29°C° 0.2 mm 3 mps 757 mmHg 84%
    07:00 +30°C° 1.2 mm 4 mps 757 mmHg 79%
    08:00 +32°C° 1.2 mm 5 mps 757 mmHg 75%
    09:00 +33°C° 1.2 mm 5 mps 758 mmHg 71%
    10:00 +33°C° 1.1 mm 6 mps 757 mmHg 70%
    11:00 +34°C° 1.1 mm 6 mps 757 mmHg 68%
    12:00 +34°C° 1.1 mm 6 mps 757 mmHg 66%
    13:00 +34°C° 1.3 mm 6 mps 756 mmHg 68%
    14:00 +33°C° 1.3 mm 5 mps 756 mmHg 70%
    15:00 +33°C° 1.3 mm 5 mps 755 mmHg 72%
    16:00 +32°C° 0.6 mm 4 mps 756 mmHg 75%
    17:00 +31°C° 0.6 mm 3 mps 756 mmHg 78%
    18:00 +30°C° 0.6 mm 3 mps 756 mmHg 81%
    19:00 +30°C° 0.6 mm 3 mps 757 mmHg 81%
    20:00 +30°C° 0.6 mm 2 mps 757 mmHg 82%
    21:00 +29°C° 0.6 mm 2 mps 758 mmHg 82%
    22:00 +29°C° 1.5 mm 2 mps 758 mmHg 82%
    23:00 +29°C° 1.5 mm 2 mps 758 mmHg 83%

    25 September, Wednesday

    Time Temperature Precipitation Wind Pressure Humidity
    00:00 +29°C° 1.5 mm 2 mps 758 mmHg 83%
    01:00 +28°C° 1 mm 2 mps 758 mmHg 83%
    02:00 +28°C° 1 mm 3 mps 758 mmHg 84%
    03:00 +28°C° 1 mm 3 mps 757 mmHg 84%
    04:00 +28°C° 0.5 mm 3 mps 758 mmHg 86%
    05:00 +27°C° 0.5 mm 4 mps 758 mmHg 88%
    06:00 +27°C° 0.5 mm 4 mps 758 mmHg 89%
    07:00 +27°C° 0.4 mm 5 mps 759 mmHg 88%
    08:00 +28°C° 0.4 mm 5 mps 760 mmHg 86%
    09:00 +28°C° 0.4 mm 5 mps 760 mmHg 85%
    10:00 +28°C° 0.9 mm 5 mps 760 mmHg 85%
    11:00 +28°C° 0.9 mm 6 mps 760 mmHg 85%
    12:00 +28°C° 0.9 mm 6 mps 760 mmHg 85%
    13:00 +27°C° 0.3 mm 6 mps 759 mmHg 86%
    14:00 +27°C° 0.3 mm 6 mps 759 mmHg 88%
    15:00 +27°C° 0.3 mm 6 mps 758 mmHg 89%
    16:00 +27°C° 0.1 mm 5 mps 759 mmHg 90%
    17:00 +26°C° 0.1 mm 5 mps 759 mmHg 91%
    18:00 +26°C° 0.1 mm 5 mps 759 mmHg 92%
    19:00 +26°C° 0.2 mm 4 mps 759 mmHg 92%
    20:00 +27°C° 0.2 mm 3 mps 760 mmHg 92%
    21:00 +27°C° 0.2 mm 2 mps 760 mmHg 92%
    22:00 +26°C° 0.5 mm 2 mps 760 mmHg 92%
    23:00 +26°C° 0.5 mm 2 mps 760 mmHg 93%

    26 September, Thursday

    Time Temperature Precipitation Wind Pressure Humidity
    00:00 +26°C° 0.5 mm 3 mps 760 mmHg 93%
    01:00 +26°C° 1 mm 3 mps 760 mmHg 94%
    02:00 +26°C° 1 mm 3 mps 760 mmHg 95%
    03:00 +26°C° 1 mm 3 mps 759 mmHg 95%
    04:00 +26°C° 0.4 mm 3 mps 759 mmHg 95%
    05:00 +26°C° 0.4 mm 3 mps 759 mmHg 95%
    06:00 +26°C° 0.4 mm 3 mps 759 mmHg 94%
    07:00 +26°C° 0.1 mm 3 mps 760 mmHg 93%
    08:00 +26°C° 0.1 mm 3 mps 760 mmHg 91%
    09:00 +27°C° 0.1 mm 3 mps 761 mmHg 89%
    10:00 +27°C° 0.1 mm 3 mps 760 mmHg 86%
    11:00 +28°C° 0.1 mm 2 mps 760 mmHg 82%
    12:00 +29°C° 0.1 mm 2 mps 760 mmHg 79%
    13:00 +29°C° 1.4 mm 2 mps 759 mmHg 78%
    14:00 +29°C° 1.4 mm 2 mps 758 mmHg 77%
    15:00 +30°C° 1.4 mm 1 mps 757 mmHg 77%
    16:00 +29°C° 1.7 mm 1 mps 758 mmHg 80%
    17:00 +28°C° 1.7 mm 1 mps 758 mmHg 83%
    18:00 +28°C° 1.7 mm 1 mps 758 mmHg 87%
    19:00 +27°C° 0.9 mm 1 mps 758 mmHg 88%
    20:00 +27°C° 0.9 mm 1 mps 759 mmHg 88%
    21:00 +27°C° 0.9 mm 1 mps 759 mmHg 89%
    22:00 +27°C° 0.2 mm 1 mps 759 mmHg 90%
    23:00 +26°C° 0.2 mm 1 mps 759 mmHg 90%

    27 September, Friday

    Time Temperature Precipitation Wind Pressure Humidity
    00:00 +26°C° 0.2 mm 1 mps 759 mmHg 91%
    01:00 +26°C° 0.2 mm 2 mps 759 mmHg 91%
    02:00 +26°C° 0.2 mm 2 mps 758 mmHg 92%
    03:00 +26°C° 0.2 mm 2 mps 758 mmHg 92%
    04:00 +26°C° 0.1 mm 2 mps 758 mmHg 93%
    05:00 +26°C° 0.1 mm 2 mps 758 mmHg 93%
    06:00 +26°C° 0.1 mm 2 mps 758 mmHg 93%
    07:00 +27°C° 0.1 mm 2 mps 759 mmHg 88%
    08:00 +28°C° 0.1 mm 2 mps 759 mmHg 82%
    09:00 +30°C° 0.1 mm 2 mps 759 mmHg 76%
    10:00 +31°C° 0.1 mm 2 mps 759 mmHg 71%
    11:00 +32°C° 0.1 mm 2 mps 758 mmHg 65%
    12:00 +33°C° 0.1 mm 1 mps 758 mmHg 60%
    13:00 +33°C° 0.4 mm 1 mps 757 mmHg 60%
    14:00 +33°C° 0.4 mm 1 mps 756 mmHg 60%
    15:00 +33°C° 0.4 mm 1 mps 756 mmHg 60%
    16:00 +32°C° 1 mm 2 mps 756 mmHg 67%
    17:00 +30°C° 1 mm 2 mps 756 mmHg 75%
    18:00 +28°C° 1 mm 3 mps 756 mmHg 83%
    19:00 +28°C° 0.1 mm 2 mps 756 mmHg 84%
    20:00 +28°C° 0.1 mm 2 mps 757 mmHg 85%
    21:00 +28°C° 0.1 mm 2 mps 757 mmHg 86%
    22:00 +27°C° 0 mm 1 mps 757 mmHg 86%
    23:00 +27°C° 0 mm 1 mps 757 mmHg 86%
    Show more